AirNav   Everest Fuels
 
 1082 users online  

81R San Saba County Municipal Airport
San Saba, Texas, USA

GOING TO SAN SABA?


FAA INFORMATION EFFECTIVE 26 JANUARY 2023

Location

FAA Identifier: 81R
Lat/Long: 31-14-08.6830N 098-43-03.6980W
31-14.144717N 098-43.061633W
31.2357453,-98.7176939
(estimated)
Elevation: 1255.2 ft. / 382.6 m (surveyed)
Variation: 07E (1985)
From city: 3 miles N of SAN SABA, TX
Time zone: UTC -6 (UTC -5 during Daylight Saving Time)
Zip code: 76877

Airport Operations

Airport use: Open to the public
Activation date: 08/1963
Control tower: no
ARTCC: HOUSTON CENTER
FSS: SAN ANGELO FLIGHT SERVICE STATION
NOTAMs facility: SJT (NOTAM-D service available)
Attendance: UNATNDD
Wind indicator: lighted
Segmented circle: yes
Lights: ACTVT PAPI RWY 13 & 31; MIRL RWY 13/31 - CTAF.
Beacon: white-green (lighted land airport)
Operates sunset to sunrise.

Airport Communications

CTAF/UNICOM: 122.8
WX AWOS-3P: 120.525 (325-372-6027)

Nearby radio navigation aids

VOR radial/distance  VOR name  Freq  Var
LLOr360/26.6LLANO VORTAC108.2008E
AGJr271/29.7GOOCH SPRINGS VORTAC112.5005E

Airport Services

Fuel available: 100LL
Parking: tiedowns
Airframe service: NONE
Powerplant service: NONE
Bottled oxygen: NONE
Bulk oxygen: NONE

Runway Information

Runway 13/31

Dimensions: 4206 x 60 ft. / 1282 x 18 m
Surface: asphalt, in good condition
Weight bearing capacity: 
Single wheel: 12.5
Runway edge lights: medium intensity
RUNWAY 13  RUNWAY 31
Latitude: 31-14.385460N31-13.903947N
Longitude: 098-43.352197W098-42.771080W
Elevation: 1255.2 ft.1242.6 ft.
Traffic pattern: leftleft
Runway heading: 127 magnetic, 134 true307 magnetic, 314 true
Markings: nonprecision, in good conditionnonprecision, in good condition
Visual slope indicator: 2-light PAPI on left (3.00 degrees glide path)2-light PAPI on left (3.00 degrees glide path)
Touchdown point: yes, no lightsyes, no lights
Obstructions: 4 ft. hill, 340 ft. from runway, 35:1 slope to clear15 ft. road, 476 ft. from runway, 18:1 slope to clear

Airport Ownership and Management from official FAA records

Ownership: Publicly-owned
Owner: SAN SABA CITY COUNTY
500 E. WALLACE
SAN SABA, TX 76877
Phone 325-372-5144
Manager: STEVE DYER
567 C.R. 105
SAN SABA, TX 76877
Phone 325-372-3380
512-940-4132 AMGR CELL & EMERGENCY FUEL.

Airport Operational Statistics

Aircraft based on the field: 6
Single engine airplanes: 6
    
Aircraft operations: avg 54/week *
43% local general aviation
36% military
22% transient general aviation
* for 12-month period ending 14 May 2020

Additional Remarks

RWY 13, 10 FT DRAINAGE DITCH 30-180 FT FM THR, 60 FT RIGHT OF CNTRLN; 5 FT DITCH 80 FT LEFT OF CNTRLN NEAR THR; 5 FT DITCH 118 FT RIGHT OF CNTRLN NEAR THR.
FOR CD CTC HOUSTON ARTCC AT 281-230-5622.
FREE WIFI IN TRML BLDG.

Instrument Procedures

There are no published instrument procedures at 81R.

Some nearby airports with instrument procedures:

KAQO - Llano Municipal Airport (27 nm S)
KLZZ - Lampasas Airport (28 nm E)
KBBD - Curtis Field Airport (31 nm W)
KBWD - Brownwood Regional Airport (36 nm N)
T92 - Mason County Airport (39 nm SW)
 
Loc | Ops | Rwys | IFR | FBO | Links
Com | Nav | Svcs | Stats | Notes
Area around 81R (San Saba County Municipal Airport)
 
Road maps at: MapQuest Bing Google
 
Aerial photo
WARNING: Photo may not be current or correct
Aerial photo of 81R (San Saba County Municipal Airport)
Photo taken 27-Feb-2005

Do you have a better or more recent aerial photo of San Saba County Municipal Airport that you would like to share? If so, please send us your photo.

 
Sectional chart

 
Airport distance calculator
Flying to San Saba County Municipal Airport? Find the distance to fly.

From to 81R

Sunrise and sunset
Times for 03-Feb-2023
 Local
(UTC-6)
 Zulu
(UTC)
Morning civil twilight07:0213:02
Sunrise07:2713:27
Sunset18:1100:11
Evening civil twilight18:3600:36

Current date and time
Zulu (UTC)  04-Feb-2023 01:01:32
Local (UTC-6)  03-Feb-2023 19:01:32
 
METAR
KAQO 
27nm S 
040055Z AUTO 10005KT 10SM CLR 07/04 A3050 RMK AO2
KLZZ 
28nm E 
040035Z AUTO 00000KT 10SM CLR 04/03 A3049 RMK AO2 T00430031
KBBD 
31nm W 
040055Z AUTO 08004KT 10SM CLR 08/00 A3046 RMK AO2
KBWD 
36nm N 
040035Z AUTO 11004KT 10SM CLR 07/M01 A3048 RMK AO1
KMNZ 
39nm NE 
040055Z AUTO 11003KT 10SM 08/02 A3049 RMK AO2 T00810023
KBMQ 
39nm SE 
040053Z AUTO 11003KT 10SM OVC012 07/04 A3051 RMK AO2 SLP337 T00670044
KMKN 
41nm N 
040055Z AUTO 15003KT 10SM CLR 06/M02 A3048 RMK AO2 T00631020
KDZB 
46nm SE 
040055Z AUTO 00000KT 10SM CLR 06/04 A3051 RMK AO2 T00590039
KGRK 
47nm E 
040055Z AUTO 00000KT 10SM OVC015 07/04 A3049 RMK AO2 SLPNO T00680041
KGOP 
48nm E 
040055Z AUTO 10SM CLR 05/04 A3052 RMK AO2
TAF
KBBD 
31nm W 
031732Z 0318/0418 VRB06KT P6SM SKC FM041200 VRB03KT P6SM FEW250 TEMPO 0413/0417 4SM BR FEW002 FM041700 18008KT P6SM FEW250
NOTAMs
Click for the latest NOTAMs
NOTAMs are issued by the DoD/FAA and will open in a separate window not controlled by AirNav.

 

 
 

FBO, Fuel Providers, and Aircraft Ground Support

  
 Business Name 
 
 Contact 
 
 Services / Description 
 
Fuel Prices
 
Comments
  
San Saba County Municipal Airport 325-372-3380
no information available

If you are affiliated with San Saba County Municipal Airport and would like to show here your services, contact info, web link, logo, and more, click here
100LL
SS $5.75 
 Updated 25-Aug-2022
 
   2 read write
SS=Self service
Update Fuel Prices
 

Would you like to see your business listed on this page?

 If your business provides an interesting product or service to pilots, flight crews, aircraft, or users of the San Saba County Municipal Airport, you should consider listing it here.  To start the listing process, click on the button below
 
Add a business
 

Other Pages about San Saba County Municipal Airport

Update a link
 
Copyright © AirNav, LLC. All rights reserved. Privacy Policy  Contact